,,,PA_Meas_PMT16A,,PR_Meas_QMR101_102,,RH_Meas_QMH101,,SR_Meas_QMS101,,TA_Meas_QMH101,,GenWind,,GenWind,
date,time,status,PA,status,PR,status,RH,status,SR,status,TA,status,DirAvg,status,SpdAvg,
2012-07-11, 00:00:05,VALID,1009.51,VALID,0,VALID,104,VALID,0.112112,VALID,23.5381,VALID,80,VALID,0.741406,
2012-07-11, 00:01:05,VALID,1009.51,VALID,0,VALID,104,VALID,0.112112,VALID,23.5381,VALID,75,VALID,0.707422,
2012-07-11, 00:02:05,VALID,1009.52,VALID,0,VALID,104,VALID,0,VALID,23.5381,VALID,76,VALID,0.805859,
2012-07-11, 00:03:05,VALID,1009.48,VALID,0,VALID,104,VALID,0.112112,VALID,23.5576,VALID,77,VALID,0.423438,
2012-07-11, 00:04:05,VALID,1009.45,VALID,0,VALID,104,VALID,0,VALID,23.5381,VALID,61,VALID,0.596484,
2012-07-11, 00:05:05,VALID,1009.42,VALID,0,VALID,104,VALID,0.112112,VALID,23.5381,VALID,57,VALID,0.551562,
2012-07-11, 00:06:05,VALID,1009.4,VALID,0,VALID,104,VALID,0.112112,VALID,23.5169,VALID,55,VALID,0.484375,
2012-07-11, 00:07:05,VALID,1009.36,VALID,0,VALID,104,VALID,0.112112,VALID,23.4974,VALID,55,VALID,0.319922,
2012-07-11, 00:08:05,VALID,1009.32,VALID,0,VALID,104,VALID,0.112112,VALID,23.4992,VALID,55,VALID,0.0574219,
2012-07-11, 00:09:05,VALID,1009.3,VALID,0,VALID,104,VALID,0.112112,VALID,23.4779,VALID,55,VALID,0.343359,
2012-07-11, 00:10:05,VALID,1009.26,VALID,0,VALID,104,VALID,0,VALID,23.5186,VALID,55,VALID,0.163672,
2012-07-11, 00:11:05,VALID,1009.24,VALID,0,VALID,104,VALID,0,VALID,23.4992,VALID,55,VALID,0,
2012-07-11, 00:12:05,VALID,1009.25,VALID,0,VALID,104,VALID,0,VALID,23.4779,VALID,55,VALID,0.185547,
2012-07-11, 00:13:05,VALID,1009.27,VALID,0,VALID,104,VALID,0.112112,VALID,23.4584,VALID,55,VALID,0.0492188,
2012-07-11, 00:14:05,VALID,1009.27,VALID,0,VALID,104,VALID,0,VALID,23.4584,VALID,55,VALID,0,
2012-07-11, 00:15:05,VALID,1009.29,VALID,0,VALID,104,VALID,0,VALID,23.4584,VALID,55,VALID,0.108203,
2012-07-11, 00:16:05,VALID,1009.31,VALID,0,VALID,104,VALID,0,VALID,23.4407,VALID,55,VALID,0.285547,
2012-07-11, 00:17:05,VALID,1009.29,VALID,0,VALID,104,VALID,0,VALID,23.4212,VALID,55,VALID,0.420312,
2012-07-11, 00:18:05,VALID,1009.27,VALID,0,VALID,104,VALID,0.112112,VALID,23.4407,VALID,55,VALID,0.674609,
2012-07-11, 00:19:05,VALID,1009.27,VALID,0,VALID,104,VALID,0,VALID,23.4017,VALID,57,VALID,0.825,
2012-07-11, 00:20:05,VALID,1009.27,VALID,0,VALID,104,VALID,0,VALID,23.3823,VALID,58,VALID,0.694922,
2012-07-11, 00:21:05,VALID,1009.24,VALID,0,VALID,104,VALID,0.112112,VALID,23.3823,VALID,61,VALID,0.816016,
2012-07-11, 00:22:05,VALID,1009.25,VALID,0,VALID,104,VALID,0,VALID,23.3823,VALID,63,VALID,0.623438,
2012-07-11, 00:23:05,VALID,1009.22,VALID,0,VALID,104,VALID,0,VALID,23.3823,VALID,63,VALID,0.428516,
2012-07-11, 00:24:05,VALID,1009.21,VALID,0,VALID,104,VALID,0,VALID,23.3805,VALID,86,VALID,0.878906,
2012-07-11, 00:25:05,VALID,1009.24,VALID,0,VALID,104,VALID,0,VALID,23.3823,VALID,70,VALID,0.676953,
2012-07-11, 00:26:05,VALID,1009.23,VALID,0,VALID,104,VALID,0.112112,VALID,23.3823,VALID,72,VALID,0.147266,
2012-07-11, 00:27:05,VALID,1009.22,VALID,0,VALID,104,VALID,0.112112,VALID,23.3628,VALID,72,VALID,0.25625,
2012-07-11, 00:28:05,VALID,1009.18,VALID,0,VALID,104,VALID,0,VALID,23.3628,VALID,101,VALID,1.17266,
2012-07-11, 00:29:05,VALID,1009.18,VALID,0,VALID,104,VALID,0,VALID,23.361,VALID,117,VALID,0.74375,
2012-07-11, 00:30:05,VALID,1009.16,VALID,0,VALID,104,VALID,0,VALID,23.3628,VALID,117,VALID,0.648047,
2012-07-11, 00:31:05,VALID,1009.15,VALID,0,VALID,104,VALID,0,VALID,23.3628,VALID,94,VALID,0.833203,
2012-07-11, 00:32:05,VALID,1009.11,VALID,0,VALID,104,VALID,0.112112,VALID,23.361,VALID,94,VALID,0.705469,
2012-07-11, 00:33:05,VALID,1009.12,VALID,0,VALID,104,VALID,0.112112,VALID,23.3433,VALID,94,VALID,0.685938,
2012-07-11, 00:34:05,VALID,1009.05,VALID,0,VALID,104,VALID,0.112112,VALID,23.3628,VALID,93,VALID,0.919531,
2012-07-11, 00:35:05,VALID,1009.03,VALID,0,VALID,104,VALID,0.112112,VALID,23.3433,VALID,91,VALID,0.321875,
2012-07-11, 00:36:05,VALID,1009.04,VALID,0,VALID,104,VALID,0.112112,VALID,23.3238,VALID,91,VALID,0.510156,
2012-07-11, 00:37:05,VALID,1009.03,VALID,0,VALID,104,VALID,0,VALID,23.3433,VALID,88,VALID,0.141406,
2012-07-11, 00:38:05,VALID,1009.02,VALID,0,VALID,104,VALID,0,VALID,23.3026,VALID,88,VALID,0.520703,
2012-07-11, 00:39:05,VALID,1008.99,VALID,0,VALID,104,VALID,0,VALID,23.3043,VALID,88,VALID,0.160938,
2012-07-11, 00:40:05,VALID,1009.02,VALID,0,VALID,104,VALID,0,VALID,23.2848,VALID,88,VALID,0.400781,
2012-07-11, 00:41:05,VALID,1009.01,VALID,0,VALID,104,VALID,0,VALID,23.2848,VALID,88,VALID,0.607813,
2012-07-11, 00:42:05,VALID,1009,VALID,0,VALID,104,VALID,0,VALID,23.2636,VALID,80,VALID,0.683984,
2012-07-11, 00:43:05,VALID,1008.99,VALID,0,VALID,104,VALID,0,VALID,23.2848,VALID,67,VALID,0.657812,
2012-07-11, 00:44:05,VALID,1008.96,VALID,0,VALID,104,VALID,0.112112,VALID,23.2848,VALID,48,VALID,0.852734,
2012-07-11, 00:45:05,VALID,1008.97,VALID,0,VALID,104,VALID,0,VALID,23.2654,VALID,56,VALID,0.86875,
2012-07-11, 00:46:05,VALID,1008.93,VALID,0,VALID,104,VALID,0,VALID,23.2441,VALID,68,VALID,0.771094,
2012-07-11, 00:47:05,VALID,1008.92,VALID,0,VALID,104,VALID,0.112112,VALID,23.2246,VALID,75,VALID,0.366016,
2012-07-11, 00:48:05,VALID,1008.97,VALID,0,VALID,104,VALID,0,VALID,23.2459,VALID,75,VALID,0.553516,
2012-07-11, 00:49:05,VALID,1008.95,VALID,0,VALID,104,VALID,0,VALID,23.2264,VALID,77,VALID,0.261719,
2012-07-11, 00:50:05,VALID,1008.98,VALID,0,VALID,104,VALID,0,VALID,23.2069,VALID,77,VALID,0.380078,
2012-07-11, 00:51:05,VALID,1008.95,VALID,0,VALID,104,VALID,0,VALID,23.2069,VALID,77,VALID,0.276953,
2012-07-11, 00:52:05,VALID,1008.98,VALID,0,VALID,104,VALID,0,VALID,23.1874,VALID,77,VALID,0.144531,
2012-07-11, 00:53:05,VALID,1008.96,VALID,0,VALID,104,VALID,0.112112,VALID,23.1874,VALID,77,VALID,0.196875,
2012-07-11, 00:54:05,VALID,1008.97,VALID,0,VALID,104,VALID,0,VALID,23.1874,VALID,77,VALID,0.339844,
2012-07-11, 00:55:05,VALID,1008.96,VALID,0,VALID,104,VALID,0,VALID,23.1874,VALID,77,VALID,0.255078,
2012-07-11, 00:56:05,VALID,1008.95,VALID,0,VALID,104,VALID,0,VALID,23.1679,VALID,77,VALID,0.326953,
2012-07-11, 00:57:05,VALID,1008.97,VALID,0,VALID,104,VALID,0,VALID,23.1679,VALID,77,VALID,0.354297,
2012-07-11, 00:58:05,VALID,1008.97,VALID,0,VALID,104,VALID,0,VALID,23.1467,VALID,95,VALID,0.596484,
2012-07-11, 00:59:05,VALID,1008.97,VALID,0,VALID,104,VALID,0.112112,VALID,23.1272,VALID,100,VALID,0.5125,
2012-07-11, 01:00:05,VALID,1008.98,VALID,0,VALID,104,VALID,0.112112,VALID,23.1095,VALID,100,VALID,0.334375,
2012-07-11, 01:01:05,VALID,1009.01,VALID,0,VALID,104,VALID,0,VALID,23.1095,VALID,100,VALID,0.195313,
2012-07-11, 01:02:05,VALID,1009.03,VALID,0,VALID,104,VALID,0,VALID,23.1095,VALID,100,VALID,0,
2012-07-11, 01:03:05,VALID,1009.04,VALID,0,VALID,104,VALID,0.112112,VALID,23.0883,VALID,100,VALID,0,
2012-07-11, 01:04:05,VALID,1009.06,VALID,0,VALID,104,VALID,0.112112,VALID,23.0493,VALID,100,VALID,0.182422,
2012-07-11, 01:05:05,VALID,1009.07,VALID,0,VALID,104,VALID,0.112112,VALID,23.0511,VALID,100,VALID,0.322656,
2012-07-11, 01:06:05,VALID,1009.09,VALID,0,VALID,104,VALID,0,VALID,23.0316,VALID,100,VALID,0.191406,
2012-07-11, 01:07:05,VALID,1009.08,VALID,0,VALID,104,VALID,0.112112,VALID,22.9731,VALID,100,VALID,0,
2012-07-11, 01:08:05,VALID,1009.1,VALID,0,VALID,104,VALID,0,VALID,22.9536,VALID,100,VALID,0,
2012-07-11, 01:09:05,VALID,1009.08,VALID,0,VALID,104,VALID,0.112112,VALID,22.9342,VALID,100,VALID,0,
2012-07-11, 01:10:05,VALID,1009.11,VALID,0,VALID,104,VALID,0,VALID,22.9147,VALID,100,VALID,0,
2012-07-11, 01:11:05,VALID,1009.1,VALID,0,VALID,104,VALID,0,VALID,22.9147,VALID,100,VALID,0,
2012-07-11, 01:12:05,VALID,1009.13,VALID,0,VALID,104,VALID,0.112112,VALID,22.8935,VALID,100,VALID,0,
2012-07-11, 01:13:05,VALID,1009.13,VALID,0,VALID,104,VALID,0,VALID,22.9342,VALID,100,VALID,0.0980469,
2012-07-11, 01:14:05,VALID,1009.12,VALID,0,VALID,104,VALID,0,VALID,22.9342,VALID,100,VALID,0.196875,
2012-07-11, 01:15:05,VALID,1009.11,VALID,0,VALID,104,VALID,0,VALID,22.9147,VALID,100,VALID,0.388281,
2012-07-11, 01:16:05,VALID,1009.1,VALID,0,VALID,104,VALID,0,VALID,22.8935,VALID,100,VALID,0.415625,
2012-07-11, 01:17:05,VALID,1009.09,VALID,0,VALID,104,VALID,0,VALID,22.9147,VALID,82,VALID,0.539063,
2012-07-11, 01:18:05,VALID,1009.1,VALID,0,VALID,104,VALID,0,VALID,22.8952,VALID,82,VALID,0.497656,
2012-07-11, 01:19:05,VALID,1009.09,VALID,0,VALID,104,VALID,0.112112,VALID,22.874,VALID,61,VALID,0.632813,
2012-07-11, 01:20:05,VALID,1009.1,VALID,0,VALID,104,VALID,0,VALID,22.8952,VALID,61,VALID,0.485156,
2012-07-11, 01:21:05,VALID,1009.09,VALID,0,VALID,104,VALID,0.112112,VALID,22.8952,VALID,61,VALID,0.228125,
2012-07-11, 01:22:05,VALID,1009.08,VALID,0,VALID,104,VALID,0,VALID,22.8562,VALID,61,VALID,0.462891,
2012-07-11, 01:23:05,VALID,1009.08,VALID,0,VALID,104,VALID,0,VALID,22.835,VALID,61,VALID,0.365234,
2012-07-11, 01:24:05,VALID,1009.1,VALID,0,VALID,104,VALID,0.112112,VALID,22.835,VALID,61,VALID,0.0257812,
2012-07-11, 01:25:05,VALID,1009.07,VALID,0,VALID,104,VALID,0.112112,VALID,22.8368,VALID,61,VALID,0.512891,
2012-07-11, 01:26:05,VALID,1009.08,VALID,0,VALID,104,VALID,0,VALID,22.8562,VALID,61,VALID,0.486719,
2012-07-11, 01:27:05,VALID,1009.1,VALID,0,VALID,104,VALID,0,VALID,22.8368,VALID,61,VALID,0.449609,
2012-07-11, 01:28:05,VALID,1009.1,VALID,0,VALID,104,VALID,0,VALID,22.7978,VALID,61,VALID,0.309766,
2012-07-11, 01:29:05,VALID,1009.1,VALID,0,VALID,104,VALID,0,VALID,22.7978,VALID,61,VALID,0.382813,
2012-07-11, 01:30:05,VALID,1009.1,VALID,0,VALID,104,VALID,0,VALID,22.7978,VALID,61,VALID,0.296484,
2012-07-11, 01:31:05,VALID,1009.11,VALID,0,VALID,104,VALID,0,VALID,22.8173,VALID,61,VALID,0.196094,
2012-07-11, 01:32:05,VALID,1009.09,VALID,0,VALID,104,VALID,0.112112,VALID,22.7961,VALID,57,VALID,0.6625,
2012-07-11, 01:33:05,VALID,1009.06,VALID,0,VALID,104,VALID,0,VALID,22.8562,VALID,48,VALID,0.815234,
2012-07-11, 01:34:05,VALID,1009.05,VALID,0,VALID,104,VALID,0,VALID,22.8562,VALID,50,VALID,0.375,
2012-07-11, 01:35:05,VALID,1009.02,VALID,0,VALID,104,VALID,0,VALID,22.8368,VALID,50,VALID,0.411719,
2012-07-11, 01:36:05,VALID,1009.04,VALID,0,VALID,104,VALID,0.112112,VALID,22.8155,VALID,50,VALID,0.20625,
2012-07-11, 01:37:05,VALID,1009.03,VALID,0,VALID,104,VALID,0,VALID,22.8368,VALID,50,VALID,0.170703,
2012-07-11, 01:38:05,VALID,1009.05,VALID,0,VALID,104,VALID,0.112112,VALID,22.7766,VALID,52,VALID,0.185156,
2012-07-11, 01:39:05,VALID,1009.06,VALID,0,VALID,104,VALID,0,VALID,22.8173,VALID,79,VALID,0.201172,
2012-07-11, 01:40:05,VALID,1009.04,VALID,0,VALID,104,VALID,0,VALID,22.8155,VALID,79,VALID,0.278516,
2012-07-11, 01:41:05,VALID,1009.04,VALID,0,VALID,104,VALID,0.112112,VALID,22.7961,VALID,79,VALID,0.24375,
2012-07-11, 01:42:05,VALID,1009.04,VALID,0,VALID,104,VALID,0,VALID,22.8155,VALID,79,VALID,0.294531,
2012-07-11, 01:43:05,VALID,1009,VALID,0,VALID,104,VALID,0,VALID,22.8368,VALID,79,VALID,0.703516,
2012-07-11, 01:44:05,VALID,1008.99,VALID,0,VALID,104,VALID,0,VALID,22.8368,VALID,71,VALID,0.976953,
2012-07-11, 01:45:05,VALID,1008.95,VALID,0,VALID,104,VALID,0.112112,VALID,22.8562,VALID,72,VALID,0.896875,
2012-07-11, 01:46:05,VALID,1008.96,VALID,0,VALID,104,VALID,0.112112,VALID,22.8545,VALID,60,VALID,0.648047,
2012-07-11, 01:47:05,VALID,1008.98,VALID,0,VALID,104,VALID,0.112112,VALID,22.835,VALID,66,VALID,1.07148,
2012-07-11, 01:48:05,VALID,1008.95,VALID,0,VALID,104,VALID,0.112112,VALID,22.8562,VALID,57,VALID,0.548437,
2012-07-11, 01:49:05,VALID,1008.95,VALID,0,VALID,104,VALID,0.112112,VALID,22.835,VALID,57,VALID,0.434375,
2012-07-11, 01:50:05,VALID,1008.96,VALID,0,VALID,104,VALID,0.112112,VALID,22.8562,VALID,57,VALID,0.622266,
2012-07-11, 01:51:05,VALID,1008.96,VALID,0,VALID,104,VALID,0.112112,VALID,22.8562,VALID,82,VALID,0.509766,
2012-07-11, 01:52:05,VALID,1008.94,VALID,0,VALID,104,VALID,0.112112,VALID,22.8757,VALID,67,VALID,0.934375,
2012-07-11, 01:53:05,VALID,1008.95,VALID,0,VALID,104,VALID,0.112112,VALID,22.8545,VALID,72,VALID,0.929297,
2012-07-11, 01:54:04,VALID,1008.92,VALID,0,VALID,104,VALID,0.112112,VALID,22.8545,VALID,73,VALID,0.939453,
2012-07-11, 01:55:04,VALID,1008.91,VALID,0,VALID,104,VALID,0.112112,VALID,22.874,VALID,70,VALID,1.23203,
2012-07-11, 01:56:04,VALID,1008.86,VALID,0,VALID,104,VALID,0,VALID,22.8952,VALID,75,VALID,0.972266,
2012-07-11, 01:57:04,VALID,1008.87,VALID,0,VALID,104,VALID,0.112112,VALID,22.874,VALID,81,VALID,1.17539,
2012-07-11, 01:58:04,VALID,1008.85,VALID,0,VALID,104,VALID,0.112112,VALID,22.8935,VALID,85,VALID,1.00625,
2012-07-11, 01:59:04,VALID,1008.82,VALID,0,VALID,104,VALID,0.112112,VALID,22.9147,VALID,94,VALID,0.985937,
2012-07-11, 02:00:04,VALID,1008.78,VALID,0,VALID,104,VALID,0,VALID,22.8935,VALID,94,VALID,0.710156,
2012-07-11, 02:01:04,VALID,1008.77,VALID,0,VALID,104,VALID,0.112112,VALID,22.9342,VALID,94,VALID,1.35781,
2012-07-11, 02:02:04,VALID,1008.74,VALID,0,VALID,104,VALID,0.112112,VALID,22.9342,VALID,98,VALID,0.464844,
2012-07-11, 02:03:04,VALID,1008.74,VALID,0,VALID,104,VALID,0.112112,VALID,22.9129,VALID,97,VALID,1.67031,
2012-07-11, 02:04:04,VALID,1008.76,VALID,0,VALID,104,VALID,0,VALID,22.9129,VALID,87,VALID,1.24219,
2012-07-11, 02:05:04,VALID,1008.73,VALID,0,VALID,104,VALID,0.112112,VALID,22.9147,VALID,86,VALID,0.870703,
2012-07-11, 02:06:04,VALID,1008.73,VALID,0,VALID,104,VALID,0.112112,VALID,22.9147,VALID,86,VALID,0.865234,
2012-07-11, 02:07:04,VALID,1008.71,VALID,0,VALID,104,VALID,0.112112,VALID,22.8952,VALID,105,VALID,0.572266,
2012-07-11, 02:08:04,VALID,1008.73,VALID,0,VALID,104,VALID,0,VALID,22.8952,VALID,67,VALID,1.07187,
2012-07-11, 02:09:04,VALID,1008.69,VALID,0,VALID,104,VALID,0.112112,VALID,22.8952,VALID,72,VALID,0.265625,
2012-07-11, 02:10:04,VALID,1008.67,VALID,0,VALID,104,VALID,0.112112,VALID,22.8952,VALID,72,VALID,0.587109,
2012-07-11, 02:11:04,VALID,1008.67,VALID,0,VALID,104,VALID,0.112112,VALID,22.874,VALID,72,VALID,0.351953,
2012-07-11, 02:12:04,VALID,1008.63,VALID,0,VALID,104,VALID,0.112112,VALID,22.874,VALID,69,VALID,0.789453,
2012-07-11, 02:13:04,VALID,1008.61,VALID,0,VALID,104,VALID,0,VALID,22.8757,VALID,67,VALID,1.05352,
2012-07-11, 02:14:04,VALID,1008.61,VALID,0,VALID,104,VALID,0,VALID,22.8952,VALID,63,VALID,1.15508,
2012-07-11, 02:15:04,VALID,1008.58,VALID,0,VALID,104,VALID,0,VALID,22.8757,VALID,82,VALID,1.2,
2012-07-11, 02:16:04,VALID,1008.58,VALID,0,VALID,104,VALID,0.112112,VALID,22.8952,VALID,76,VALID,0.991016,
2012-07-11, 02:17:04,VALID,1008.57,VALID,0,VALID,104,VALID,0,VALID,22.874,VALID,75,VALID,0.933203,
2012-07-11, 02:18:04,VALID,1008.57,VALID,0,VALID,104,VALID,0.112112,VALID,22.8545,VALID,57,VALID,0.665234,
2012-07-11, 02:19:04,VALID,1008.53,VALID,0,VALID,104,VALID,0.112112,VALID,22.8757,VALID,83,VALID,1.06992,
2012-07-11, 02:20:04,VALID,1008.55,VALID,0,VALID,104,VALID,0,VALID,22.8545,VALID,83,VALID,0.666797,
2012-07-11, 02:21:04,VALID,1008.52,VALID,0,VALID,104,VALID,0.112112,VALID,22.8562,VALID,73,VALID,0.901953,
2012-07-11, 02:22:04,VALID,1008.51,VALID,0,VALID,104,VALID,0.112112,VALID,22.8562,VALID,74,VALID,0.929297,
2012-07-11, 02:23:04,VALID,1008.5,VALID,0,VALID,104,VALID,0.112112,VALID,22.8757,VALID,73,VALID,1.19687,
2012-07-11, 02:24:04,VALID,1008.5,VALID,0,VALID,104,VALID,0.112112,VALID,22.835,VALID,75,VALID,0.510156,
2012-07-11, 02:25:04,VALID,1008.5,VALID,0,VALID,104,VALID,0.112112,VALID,22.8545,VALID,48,VALID,0.696875,
2012-07-11, 02:26:04,VALID,1008.5,VALID,0,VALID,104,VALID,0,VALID,22.835,VALID,87,VALID,0.935938,
2012-07-11, 02:27:04,VALID,1008.47,VALID,0,VALID,104,VALID,0,VALID,22.8757,VALID,117,VALID,0.751172,
2012-07-11, 02:28:04,VALID,1008.47,VALID,0,VALID,104,VALID,0.112112,VALID,22.8545,VALID,103,VALID,0.883984,
2012-07-11, 02:29:04,VALID,1008.46,VALID,0,VALID,104,VALID,0.112112,VALID,22.8952,VALID,89,VALID,1.04375,
2012-07-11, 02:30:04,VALID,1008.5,VALID,0,VALID,104,VALID,0,VALID,22.8935,VALID,86,VALID,0.454297,
2012-07-11, 02:31:04,VALID,1008.48,VALID,0,VALID,104,VALID,0.112112,VALID,22.9147,VALID,128,VALID,0.950781,
2012-07-11, 02:32:04,VALID,1008.45,VALID,0,VALID,104,VALID,0.112112,VALID,22.9147,VALID,129,VALID,1.13359,
2012-07-11, 02:33:04,VALID,1008.43,VALID,0,VALID,104,VALID,0.112112,VALID,22.874,VALID,119,VALID,1.05859,
2012-07-11, 02:34:04,VALID,1008.47,VALID,0,VALID,104,VALID,0.112112,VALID,22.874,VALID,129,VALID,1.12109,
2012-07-11, 02:35:04,VALID,1008.46,VALID,0,VALID,104,VALID,0,VALID,22.874,VALID,107,VALID,0.651953,
2012-07-11, 02:36:04,VALID,1008.48,VALID,0,VALID,104,VALID,0,VALID,22.8952,VALID,107,VALID,0.498828,
2012-07-11, 02:37:04,VALID,1008.48,VALID,0,VALID,104,VALID,0,VALID,22.8757,VALID,104,VALID,0.694922,
2012-07-11, 02:38:04,VALID,1008.48,VALID,0,VALID,104,VALID,0,VALID,22.9147,VALID,71,VALID,0.703516,
2012-07-11, 02:39:04,VALID,1008.52,VALID,0,VALID,104,VALID,0.112112,VALID,22.9147,VALID,67,VALID,0.468359,
2012-07-11, 02:40:04,VALID,1008.51,VALID,0,VALID,104,VALID,0.112112,VALID,22.9342,VALID,60,VALID,0.827344,
2012-07-11, 02:41:04,VALID,1008.47,VALID,0,VALID,104,VALID,0,VALID,22.9129,VALID,55,VALID,0.658594,
2012-07-11, 02:42:04,VALID,1008.51,VALID,0,VALID,104,VALID,0.112112,VALID,22.9536,VALID,71,VALID,0.727734,
2012-07-11, 02:43:04,VALID,1008.52,VALID,0,VALID,104,VALID,0.112112,VALID,22.9324,VALID,46,VALID,0.776172,
2012-07-11, 02:44:04,VALID,1008.57,VALID,0,VALID,104,VALID,0.112112,VALID,22.9324,VALID,46,VALID,0.0964844,
2012-07-11, 02:45:04,VALID,1008.57,VALID,0,VALID,104,VALID,0.112112,VALID,22.9536,VALID,46,VALID,0.135547,
2012-07-11, 02:46:04,VALID,1008.61,VALID,0,VALID,104,VALID,0.112112,VALID,22.9731,VALID,46,VALID,0.600391,
2012-07-11, 02:47:04,VALID,1008.62,VALID,0,VALID,104,VALID,0.112112,VALID,22.9909,VALID,224,VALID,0.916797,
2012-07-11, 02:48:04,VALID,1008.69,VALID,0,VALID,104,VALID,0,VALID,23.0121,VALID,220,VALID,1.21563,
2012-07-11, 02:49:04,VALID,1008.71,VALID,0,VALID,104,VALID,0.112112,VALID,23.0511,VALID,230,VALID,0.399609,
2012-07-11, 02:50:04,VALID,1008.75,VALID,0,VALID,104,VALID,0.112112,VALID,23.09,VALID,232,VALID,0.689453,
2012-07-11, 02:51:04,VALID,1008.77,VALID,0,VALID,104,VALID,0,VALID,23.1307,VALID,280,VALID,0.308984,
2012-07-11, 02:52:04,VALID,1008.83,VALID,0,VALID,104,VALID,0.112112,VALID,23.129,VALID,302,VALID,0.948438,
2012-07-11, 02:53:04,VALID,1008.84,VALID,0,VALID,104,VALID,0.112112,VALID,23.1874,VALID,207,VALID,1.05313,
2012-07-11, 02:54:04,VALID,1008.86,VALID,0,VALID,104,VALID,0.112112,VALID,23.2264,VALID,201,VALID,0.264844,
2012-07-11, 02:55:04,VALID,1008.86,VALID,0,VALID,104,VALID,0.112112,VALID,23.2246,VALID,201,VALID,0.144141,
2012-07-11, 02:56:04,VALID,1008.87,VALID,0,VALID,104,VALID,0,VALID,23.2654,VALID,201,VALID,0.292188,
2012-07-11, 02:57:04,VALID,1008.88,VALID,0,VALID,104,VALID,0.112112,VALID,23.2848,VALID,199,VALID,0.475391,
2012-07-11, 02:58:04,VALID,1008.87,VALID,0,VALID,104,VALID,0.112112,VALID,23.3433,VALID,157,VALID,0.461719,
2012-07-11, 02:59:04,VALID,1008.87,VALID,0,VALID,104,VALID,0,VALID,23.3238,VALID,151,VALID,0.273047,
2012-07-11, 03:00:04,VALID,1008.92,VALID,0,VALID,104,VALID,0,VALID,23.4035,VALID,210,VALID,0.746875,
2012-07-11, 03:01:04,VALID,1008.99,VALID,0,VALID,104,VALID,0,VALID,23.4425,VALID,210,VALID,0.780078,
2012-07-11, 03:02:04,VALID,1009.1,VALID,0,VALID,104,VALID,0,VALID,23.5204,VALID,292,VALID,0.610156,
2012-07-11, 03:03:04,VALID,1009.19,VALID,0,VALID,104,VALID,0,VALID,23.5399,VALID,303,VALID,1.10273,
2012-07-11, 03:04:04,VALID,1009.25,VALID,0,VALID,104,VALID,0,VALID,23.5594,VALID,304,VALID,1.40234,
2012-07-11, 03:05:04,VALID,1009.27,VALID,0,VALID,104,VALID,0,VALID,23.5576,VALID,315,VALID,1.17422,
2012-07-11, 03:06:04,VALID,1009.31,VALID,0,VALID,104,VALID,0,VALID,23.5966,VALID,321,VALID,1.01641,
2012-07-11, 03:07:04,VALID,1009.33,VALID,0,VALID,104,VALID,0,VALID,23.6161,VALID,266,VALID,0.410156,
2012-07-11, 03:08:04,VALID,1009.3,VALID,0,VALID,104,VALID,0,VALID,23.6568,VALID,214,VALID,0.675,
2012-07-11, 03:09:04,VALID,1009.31,VALID,0,VALID,104,VALID,0,VALID,23.6568,VALID,293,VALID,0.903906,
2012-07-11, 03:10:04,VALID,1009.31,VALID,0,VALID,104,VALID,0,VALID,23.6763,VALID,292,VALID,0.804297,
2012-07-11, 03:11:04,VALID,1009.35,VALID,0,VALID,104,VALID,0,VALID,23.655,VALID,201,VALID,0.985937,
2012-07-11, 03:12:04,VALID,1009.32,VALID,0,VALID,104,VALID,0,VALID,23.7153,VALID,233,VALID,0.641406,
2012-07-11, 03:13:04,VALID,1009.34,VALID,0,VALID,104,VALID,0,VALID,23.7348,VALID,213,VALID,0.620703,
2012-07-11, 03:14:04,VALID,1009.34,VALID,0,VALID,104,VALID,0.112112,VALID,23.772,VALID,230,VALID,0.771875,
2012-07-11, 03:15:04,VALID,1009.32,VALID,0,VALID,104,VALID,0,VALID,23.7914,VALID,219,VALID,0.693359,
2012-07-11, 03:16:04,VALID,1009.32,VALID,0,VALID,104,VALID,0,VALID,23.8304,VALID,248,VALID,0.818359,
2012-07-11, 03:17:04,VALID,1009.32,VALID,0,VALID,104,VALID,0,VALID,23.8499,VALID,226,VALID,0.498437,
2012-07-11, 03:18:04,VALID,1009.32,VALID,0,VALID,104,VALID,0,VALID,23.8499,VALID,216,VALID,0.685156,
2012-07-11, 03:19:04,VALID,1009.27,VALID,0,VALID,103.931,VALID,0,VALID,23.8499,VALID,197,VALID,0.272656,
2012-07-11, 03:20:04,VALID,1009.25,VALID,0,VALID,103.939,VALID,0.112112,VALID,23.8304,VALID,211,VALID,1.63203,
2012-07-11, 03:21:04,VALID,1009.29,VALID,0,VALID,104,VALID,0.112112,VALID,23.8304,VALID,257,VALID,1.19453,
2012-07-11, 03:22:04,VALID,1009.29,VALID,0,VALID,104,VALID,0.112112,VALID,23.8091,VALID,277,VALID,0.238672,
2012-07-11, 03:23:04,VALID,1009.3,VALID,0,VALID,104,VALID,0.112112,VALID,23.8109,VALID,257,VALID,0.760938,
2012-07-11, 03:24:04,VALID,1009.31,VALID,0,VALID,104,VALID,0.112112,VALID,23.7701,VALID,256,VALID,0.323047,
2012-07-11, 03:25:04,VALID,1009.2,VALID,0,VALID,104,VALID,0,VALID,23.7507,VALID,237,VALID,0.325781,
2012-07-11, 03:26:04,VALID,1009.16,VALID,0,VALID,104,VALID,0.112112,VALID,23.7525,VALID,220,VALID,1.08359,
2012-07-11, 03:27:04,VALID,1009.19,VALID,0,VALID,104,VALID,0.112112,VALID,23.7135,VALID,272,VALID,0.538281,
2012-07-11, 03:28:04,VALID,1009.17,VALID,0,VALID,104,VALID,0.112112,VALID,23.733,VALID,277,VALID,0.183203,
2012-07-11, 03:29:04,VALID,1009.17,VALID,0,VALID,104,VALID,0,VALID,23.6958,VALID,269,VALID,0.240234,
2012-07-11, 03:30:04,VALID,1009.16,VALID,0.5,VALID,104,VALID,0,VALID,23.6958,VALID,191,VALID,0.648047,
2012-07-11, 03:31:04,VALID,1009.15,VALID,0,VALID,104,VALID,0,VALID,23.6763,VALID,228,VALID,0.577344,
2012-07-11, 03:32:04,VALID,1009.14,VALID,0,VALID,104,VALID,0,VALID,23.6356,VALID,236,VALID,0.798437,
2012-07-11, 03:33:04,VALID,1009.17,VALID,0,VALID,104,VALID,0,VALID,23.5966,VALID,196,VALID,1.08516,
2012-07-11, 03:34:04,VALID,1009.16,VALID,0.5,VALID,104,VALID,0,VALID,23.5984,VALID,231,VALID,1.3,
2012-07-11, 03:35:04,VALID,1009.13,VALID,0,VALID,104,VALID,0,VALID,23.5789,VALID,147,VALID,0.844922,
2012-07-11, 03:36:04,VALID,1009.13,VALID,0,VALID,104,VALID,0,VALID,23.5789,VALID,204,VALID,1.34844,
2012-07-11, 03:37:04,VALID,1009.15,VALID,0,VALID,104,VALID,0,VALID,23.5186,VALID,190,VALID,1.15586,
2012-07-11, 03:38:04,VALID,1009.15,VALID,0,VALID,104,VALID,0,VALID,23.5009,VALID,231,VALID,1.05039,
2012-07-11, 03:39:04,VALID,1009.14,VALID,0,VALID,104,VALID,0,VALID,23.5009,VALID,212,VALID,2.03203,
2012-07-11, 03:40:04,VALID,1009.11,VALID,0.5,VALID,104,VALID,0,VALID,23.4602,VALID,234,VALID,2.69297,
2012-07-11, 03:41:04,VALID,1009.11,VALID,0,VALID,104,VALID,0,VALID,23.4815,VALID,215,VALID,2.14727,
2012-07-11, 03:42:04,VALID,1009.12,VALID,0,VALID,104,VALID,0,VALID,23.462,VALID,231,VALID,2.87031,
2012-07-11, 03:43:04,VALID,1009.11,VALID,0,VALID,104,VALID,0,VALID,23.4815,VALID,219,VALID,1.40781,
2012-07-11, 03:44:04,VALID,1009.1,VALID,0,VALID,104,VALID,0.112112,VALID,23.4602,VALID,221,VALID,1.39688,
2012-07-11, 03:45:04,VALID,1009.07,VALID,0,VALID,104,VALID,0,VALID,23.4407,VALID,265,VALID,0.356641,
2012-07-11, 03:46:04,VALID,1009.09,VALID,0,VALID,104,VALID,0,VALID,23.4212,VALID,211,VALID,0.951172,
2012-07-11, 03:47:04,VALID,1009.05,VALID,0,VALID,104,VALID,0,VALID,23.4212,VALID,179,VALID,0.839453,
2012-07-11, 03:48:04,VALID,1009.07,VALID,0,VALID,104,VALID,0,VALID,23.4017,VALID,218,VALID,0.460547,